Regional Weather Roundup
Issued by NWS Bismarck, ND

Home | Current Version | Previous Version | Text Only | Print | Product List | Glossary On
Versions: 1 2 3 4 5 6 7 8 9 10 11 12 13 14 15 16 17 18 19 20 21 22 23 24 25 26 27 28 29 30 31 32 33 34 35 36 37 38 39 40 41 42 43 44 45 46 47 48 49 50
000
ASUS43 KBIS 241310
RWRBIS

NWR BROADCAST TEXT
NATIONAL WEATHER SERVICE BISMARCK ND
800 AM CDT WED AUG 24 2016

NOTE: "FAIR" INDICATES FEW OR NO CLOUDS BELOW 12,000 FEET WITH NO
SIGNIFICANT WEATHER AND/OR OBSTRUCTIONS TO VISIBILITY.


CITY           SKY/WX    TMP DP  RH WIND       PRES   REMARKS
WILLISTON      MOCLDY    56  50  80 W9        29.98S
MINOT          SUNNY     59  50  72 SW13      29.90F
MINOT AFB      NOT AVBL
BISMARCK       SUNNY     58  50  75 W16       29.99S
DICKINSON      CLEAR     53  48  83 W17       30.04R
GARRISON         N/A     56  51  84 W12       29.95F
HETTINGER ARPT CLEAR     53  47  79 W16       30.09F
JAMESTOWN      SUNNY     58  51  78 W13       29.93R
CARRINGTON     FAIR      57  52  82 W12G18    29.94R
HAZEN          CLOUDY    55  48  76 W13       30.00S
LINTON         FAIR      55  52  88 W8        30.04R
MANDAN         FAIR      55  48  76 W15       30.00S
OAKES            N/A    N/A N/A N/A MISG        N/A
STANLEY        CLOUDY    55  54  94 W14G22    29.97R
$$

CITY           SKY/WX    TMP DP  RH WIND       PRES   REMARKS
GRAND FORKS    MOSUNNY   59  53  80 W9        29.82R
GRAND FORKS AF SUNNY     60  53  75 W8        29.83R
DEVILS LAKE    SUNNY     59  52  77 W18       29.88R
FARGO          SUNNY     61  51  70 W10       29.87S
CAVALIER       FAIR      59  50  72 W10       29.81R
GRAFTON        FAIR      59  54  82 W15       29.83R
GWINNER        FAIR      61  52  72 W13       29.94R
LANGDON        CLOUDY    55  52  88 W10       29.85R
ROLLA          FAIR      55  50  82 W14G21    29.86S
$$

CITY           SKY/WX    TMP DP  RH WIND       PRES   REMARKS
ABERDEEN       SUNNY     60  47  61 NW14      29.98S
MOBRIDGE       MOSUNNY   60  47  61 NW12      30.03R
BUFFALO          N/A     53  47  79 W16       30.07S
RAPID CITY     CLOUDY    57  43  59 NW16      30.17R
GLASGOW        CLOUDY    54  44  69 NW26G39   30.10R
SIDNEY         MOCLDY    58  50  75 W16G24    30.02R
WOLF POINT     CLOUDY    58  46  64 W18G30    30.06R
GLENDIVE       MOCLDY    57  49  74 W17       30.08R
MILES CITY     CLEAR     56  46  69 W10       30.16R
BAKER          CLEAR     52  46  80 W14       30.14R
$$

CITY           SKY/WX    TMP DP  RH WIND       PRES   REMARKS
BILLINGS       PTCLDY    53  43  68 W6        30.24R
GREAT FALLS    CLOUDY    51  44  77 W8        30.32R
REGINA         LGT RAIN  54  52  94 NW18G28   29.88R
ESTEVAN        CLOUDY    55  50  82 W17G26    29.90R
$$





USA.gov is the U.S. government's official web portal to all federal, state and local government web resources and services.